GSAT0215 (GALILEO 19) (43055 NORAD) Tracking and Keplerian Element Data

This shows tracking and keplerian element data for the satellite.

Feedback or suggestion? Click here.




ElementValue
Catalog43055
NameGSAT0215 (GALILEO 19)
Epoch Orbit1134
Epoch Day282.479116
Epoch Year2019
RAAN288.7052
Inclination56.4707
Eccentricity0.0004172
Argument of Perigee253.4288
Mean Anonmoly106.5526
Mean Motion1.70473957
Decay Rate0
L11 43055U 17079A 19282.47911600 -.00000000 00000-0 00000+0 0 9991
L22 43055 56.4707 288.7052 0004172 253.4288 106.5526 1.70473957 11343

Live tracking and technical data element details for GSAT0215 (GALILEO 19) (NORAD 43055). GSAT0215 (GALILEO 19) can be tracked NOW for your location showing map with azimuth and elevation plus other details from your city location.

Track the satellite on the map from your city or location and see movement details for azimuth, elevation, latitude, longitude, range, height, and movement on the map or in text.







IsCatalogInMostPopularTable: catalog: 43055, numindb: 375
Update: records affected: 1



GetName: 43055 GSAT0215 (GALILEO 19)

Hit Count: updated at: Mon, 14 Oct 2019 00:56:56 GMT